Temp
14 13 13 12 13 13 12 11 11 10 10 9 9 9 9 9 8 8 8 8 8 9 9 9 9 8 8 9 9 9 9 9 9 7 6 5 4 4 4 3 3 3 3
13 13 12 12 11 11 11 10 10 9 8 8 8 8 7 7 7 8 8 7 8 8 7 7 7 7 8 8 7 7 7 7 7 7 5 4 3 2 2 2 2 2 2
12 12 11 10 10 10 10 9 8 8 7 7 7 6 6 6 6 6 6 6 6 6 6 6 6 6 6 5 5 5 5 5 5 5 4 3 2 3 1 1 1 2 2
11 11 10 10 9 9 9 8 7 7 6 6 6 5 5 4 4 5 5 5 5 4 4 4 4 4 3 3 3 3 3 3 3 4 3 3 2 1 0 1 2 2 2
10 9 9 9 8 8 7 7 6 6 5 5 5 4 3 3 2 3 3 3 3 3 2 2 2 2 2 2 2 2 2 3 3 3 4 3 3 2 1 1 1 1 1
9 8 8 8 7 7 6 5 5 4 4 4 4 3 3 2 2 2 2 2 2 2 2 1 1 1 0 0 1 1 1 1 1 2 3 2 2 2 1 1 0 -0 -0
9 9 8 7 6 5 5 4 3 3 3 3 3 2 2 2 2 2 2 2 2 1 1 1 1 1 1 0 0 -0 1 0 0 0 1 1 0 0 -0 -1 -1 -1 -1
9 9 8 7 6 5 4 3 2 3 2 2 2 1 1 1 1 1 1 1 0 0 1 1 0 0 -0 -0 -0 -0 -1 -1 -0 -0 -0 -1 -1 -1 -1 -2 -2 -2 -1
8 8 7 6 5 4 3 2 2 2 2 1 1 1 1 0 -1 -1 1 0 1 0 0 -0 -0 -1 -1 -1 -1 -1 -1 -1 -1 -1 -1 -1 -1 -1 -2 -2 -2 -2 -2
8 8 7 6 5 4 2 2 2 2 1 1 1 1 0 -0 -1 0 0 0 0 -0 -0 -0 -0 -1 -1 -1 -1 -1 -1 -1 -2 -2 -2 -2 -2 -2 -2 -2 -3 -3 -3
7 7 6 5 4 2 2 2 2 1 1 0 0 -0 -0 -0 -0 0 0 -0 0 0 -0 -1 -1 -1 -2 -2 -2 -2 -2 -2 -2 -2 -2 -2 -3 -3 -3 -3 -3 -3 -4
6 5 5 4 3 2 2 1 1 1 0 -0 -1 -1 -0 -0 -0 -1 -1 -0 -0 -0 -0 -1 -1 -1 -1 -2 -2 -2 -3 -2 -2 -3 -3 -3 -3 -3 -3 -4 -4 -4 -4
5 4 4 3 2 1 1 1 0 0 -0 -1 -1 -0 -0 -0 -0 -0 -1 -1 -1 -1 -1 -1 -1 -2 -2 -2 -2 -3 -3 -3 -3 -3 -3 -3 -3 -3 -4 -4 -4 -4 -5
4 4 3 2 1 1 1 1 0 -0 -1 -0 0 0 0 0 0 0 -0 -0 -0 -1 -1 -1 -1 -2 -2 -3 -3 -3 -3 -3 -3 -3 -3 -3 -3 -4 -4 -4 -5 -5 -5
4 3 3 2 1 0 0 1 0 0 0 0 0 0 0 0 1 1 1 1 0 -0 -1 -2 -2 -2 -3 -3 -3 -3 -3 -3 -3 -3 -4 -4 -4 -4 -4 -4 -5 -5 -5
3 3 2 1 1 0 -0 -0 -0 0 0 -0 0 0 1 1 1 1 0 0 -1 -1 -2 -2 -2 -2 -3 -2 -2 -2 -3 -3 -3 -4 -4 -4 -4 -5 -4 -5 -5 -5 -5
3 2 2 1 0 0 -0 -1 -1 -0 -0 -0 0 0 0 1 1 1 1 -0 -1 -1 -2 -2 -2 -2 -2 -2 -2 -2 -3 -3 -3 -4 -4 -5 -5 -5 -5 -5 -6 -6 -6
3 3 2 1 0 0 -0 -0 0 -0 -0 -0 -1 -1 -0 0 1 1 0 -1 -1 -1 -2 -2 -2 -2 -2 -2 -2 -3 -3 -3 -4 -4 -5 -5 -5 -6 -6 -6 -6 -7 -7
2 2 2 1 1 0 0 0 -0 -0 -0 -0 0 0 -0 -1 -1 -1 -1 -1 -2 -2 -2 -2 -2 -2 -2 -2 -2 -3 -3 -4 -4 -5 -5 -5 -6 -6 -6 -7 -7 -7 -7
2 2 1 1 1 0 0 -0 -0 -0 -0 -1 0 1 1 -1 -1 -1 -1 -1 -2 -2 -1 -1 -1 -1 -1 -2 -2 -3 -3 -4 -4 -5 -5 -5 -6 -6 -7 -7 -7 -8 -8
3 2 1 1 1 1 0 -0 -0 0 -0 -1 -0 1 2 -0 -0 -0 0 -1 -1 -1 -1 -1 -1 -1 -2 -2 -2 -3 -3 -4 -4 -4 -5 -5 -5 -6 -7 -7 -8 -8 -8
2 2 2 1 1 0 0 0 -0 -1 -1 -1 -1 -1 -1 -1 -1 -1 -0 -0 -0 -0 -0 -0 -1 -1 -2 -2 -2 -2 -3 -3 -4 -4 -5 -5 -5 -6 -7 -7 -7 -8 -8
1 2 2 1 1 0 -0 -0 -0 -1 -1 -1 -1 -1 -1 -2 -2 -2 -2 -3 -2 -2 -2 -1 -1 -1 -2 -3 -2 -2 -3 -3 -4 -4 -4 -5 -5 -6 -7 -7 -7 -8 -8
0 1 1 1 1 0 -0 -0 -1 -1 -1 -1 -1 -2 -2 -2 -2 -2 -2 -2 -2 -3 -4 -4 -4 -3 -3 -3 -4 -3 -3 -4 -4 -4 -5 -5 -6 -7 -7 -7 -7 -8 -8
-1 -0 -0 -0 0 -0 -0 -0 -1 -1 -1 -1 -1 -1 -2 -2 -2 -2 -2 -3 -3 -3 -3 -4 -4 -4 -5 -5 -4 -4 -4 -4 -5 -4 -5 -6 -6 -7 -8 -8 -8 -8 -8
-1 -1 -1 -1 -1 -1 -1 -1 -1 -1 -1 -1 -2 -2 -2 -2 -3 -3 -3 -3 -3 -3 -4 -4 -4 -4 -4 -5 -6 -4 -5 -4 -5 -6 -6 -6 -7 -7 -8 -8 -8 -8 -8
Height
784 787 791 792 788 792 798 802 803 804 806 807 807 808 809 809 808 808 809 811 811 811 810 810 810 810 811 813 811 810 812 814 814 818 819 821 821 821 822 821 821 820 820
784 787 787 787 791 792 796 799 800 803 803 804 804 805 806 805 806 806 807 807 809 809 810 809 808 808 809 810 811 811 811 811 814 815 820 819 820 819 820 821 819 819 818
784 787 786 788 789 793 796 797 799 800 802 801 802 803 804 804 803 803 805 805 805 806 808 808 807 808 807 807 809 810 812 810 813 814 817 819 818 817 817 818 817 818 817
782 783 785 788 790 791 794 795 797 798 799 800 801 801 801 802 802 800 801 803 804 807 807 807 805 807 808 809 810 809 810 811 813 814 814 818 817 816 817 816 816 818 816
780 783 784 786 788 789 790 794 795 796 797 798 798 799 800 799 801 799 799 802 801 805 807 810 808 807 807 807 807 807 810 811 812 814 813 816 816 816 816 815 817 818 815
778 780 782 783 784 786 789 792 793 794 795 796 797 797 798 799 799 799 798 803 800 803 804 808 810 812 811 808 806 807 808 809 814 813 814 813 813 815 813 814 817 817 814
774 775 777 779 781 784 787 790 791 792 794 795 795 796 796 797 799 798 798 801 802 801 802 805 807 810 809 810 809 809 807 808 813 813 813 812 813 813 814 815 816 817 814
770 772 774 777 779 782 785 787 789 790 791 793 794 795 795 796 798 797 797 799 802 802 801 802 808 809 808 808 811 810 808 809 812 813 813 813 813 813 813 814 815 815 814
765 768 771 774 777 779 782 784 785 787 789 791 792 794 794 795 797 798 798 798 801 803 801 804 808 808 808 808 809 810 807 809 811 812 813 813 812 812 813 813 814 814 812
762 765 767 770 772 775 778 780 781 784 786 788 790 792 794 796 798 797 796 798 800 802 803 804 807 807 807 807 809 808 807 809 810 811 813 810 810 810 811 812 813 813 812
760 763 765 767 770 772 775 778 779 782 785 787 789 791 794 794 794 794 797 798 799 800 801 803 805 805 806 808 807 807 807 808 809 810 810 809 810 811 810 810 811 812 811
757 760 762 764 766 769 772 775 778 780 783 785 787 789 790 791 792 794 796 796 797 799 800 801 802 803 805 805 806 806 806 807 809 808 807 808 809 810 810 809 810 810 810
756 758 760 762 764 767 770 772 775 777 779 781 783 785 787 789 790 792 793 795 796 797 798 799 801 801 802 803 804 804 804 805 806 805 805 807 808 808 808 808 808 808 807
754 756 757 759 762 764 766 769 771 774 775 778 781 783 785 787 787 788 790 792 794 795 796 798 799 799 800 801 802 802 801 802 801 802 804 804 805 806 805 804 805 805 805
750 752 754 756 759 760 762 763 766 769 772 774 777 779 781 782 782 784 786 787 789 792 794 795 796 797 797 798 799 799 798 798 798 800 801 802 802 803 802 801 802 803 802
747 748 750 752 752 756 759 761 763 766 769 772 774 776 777 779 780 781 783 784 786 789 791 791 791 792 793 795 795 795 794 795 796 797 797 798 799 799 798 798 798 799 798
743 744 746 748 749 751 755 757 759 762 765 768 770 772 773 775 776 778 779 781 783 785 785 786 787 788 789 790 791 791 791 792 793 793 793 794 795 794 793 793 794 794 793
738 740 742 743 745 747 749 751 753 756 760 762 764 766 769 771 773 774 776 778 780 780 780 781 783 784 785 785 786 787 788 789 789 789 789 790 790 790 789 789 789 790 789
735 735 736 739 741 743 744 747 750 752 754 757 759 761 763 765 767 770 772 772 772 773 774 775 777 778 780 781 781 782 783 784 784 785 785 785 785 786 784 784 785 786 786
730 731 732 733 736 738 740 742 744 746 748 750 753 754 758 761 761 762 764 765 765 766 768 769 770 772 774 775 776 777 778 779 779 780 780 781 781 781 780 780 780 780 780
724 726 728 729 730 732 734 735 737 739 741 744 745 748 751 753 753 754 755 756 757 758 760 762 764 766 767 770 771 771 772 772 773 774 775 775 775 775 775 775 775 775 775
719 720 722 723 724 726 727 729 731 733 735 737 739 741 744 747 746 747 747 748 749 750 752 754 756 757 760 762 764 765 765 766 767 768 769 769 769 769 769 769 769 769 769
715 715 716 718 719 721 723 724 726 727 729 731 733 735 736 737 738 739 740 741 743 744 746 748 749 751 753 755 757 758 759 760 761 763 763 763 763 763 763 763 763 763 763
712 711 713 714 715 716 717 718 720 722 724 725 727 728 729 730 731 732 733 734 735 736 738 739 742 744 746 749 751 752 753 754 755 756 757 757 756 757 758 757 756 755 755
710 709 710 710 711 712 713 715 716 718 719 721 722 723 724 724 725 726 727 728 728 729 730 733 734 737 739 742 744 747 747 749 749 750 750 750 750 750 750 750 750 749 748
709 709 709 709 709 710 711 712 714 715 716 717 718 719 719 720 720 721 722 723 723 724 726 728 729 731 734 735 738 740 741 742 742 743 743 743 743 743 743 742 741 740 740
Wind_Speed
17 16 15 11 13 12 10 11 10 9 9 7 7 7 7 7 5 3 5 7 7 8 7 7 5 3 4 4 2 3 4 4 2 2 2 2 2 3 6 5 4 3 2
16 15 14 11 9 9 9 9 8 6 8 8 7 6 6 6 5 3 3 2 5 4 3 4 4 4 5 5 1 2 3 2 3 4 4 1 4 4 5 3 4 4 4
14 14 11 9 9 8 8 8 8 8 7 6 5 5 7 7 6 6 4 4 5 6 6 6 5 5 5 5 6 5 3 2 3 3 3 1 3 6 3 4 3 9 8
15 13 13 11 9 10 9 8 7 7 7 5 6 6 6 6 6 6 7 7 6 6 5 6 7 6 4 3 3 4 4 4 5 5 3 2 1 4 3 5 5 4 4
15 14 12 12 10 9 7 7 7 7 6 8 8 6 6 5 5 5 6 7 6 6 4 4 4 6 7 7 7 6 4 4 5 4 3 3 1 2 2 3 3 4 1
16 14 12 10 8 8 7 8 8 7 8 8 6 5 4 4 5 6 7 8 9 9 9 9 7 5 6 7 7 6 5 5 4 4 4 5 4 3 3 1 3 3 1
17 14 14 11 10 9 7 7 7 8 8 8 6 6 5 4 5 7 8 10 11 11 11 9 6 5 3 4 5 6 7 6 4 2 2 4 4 1 2 1 1 2 3
19 17 17 15 15 13 11 11 11 10 9 9 7 6 6 5 6 8 9 9 10 9 9 7 4 4 4 4 3 3 5 3 3 2 3 3 2 2 2 1 3 5 6
22 20 19 18 17 15 13 14 12 10 10 10 8 9 7 6 7 8 9 10 10 8 7 6 3 2 2 3 2 2 4 0 2 0 2 3 4 5 6 6 4 4 2
21 19 18 18 16 14 13 13 12 12 12 10 10 10 9 10 10 7 7 6 7 5 5 4 6 4 2 1 3 1 2 2 2 2 3 3 3 2 3 4 5 4 2
17 17 18 17 14 14 14 14 13 13 13 12 11 11 12 11 10 8 9 7 5 5 4 4 4 3 3 3 2 2 2 2 3 3 3 2 3 3 2 3 4 6 6
17 18 17 15 14 15 16 15 15 15 16 14 12 12 12 11 9 10 9 8 6 6 6 5 5 5 5 5 5 4 3 4 5 4 4 4 5 4 6 8 7 6 8
16 17 16 14 15 15 17 17 17 17 17 15 13 13 13 13 12 11 11 9 7 8 6 5 6 6 6 6 7 7 6 7 5 5 6 6 7 9 9 10 11 8 8
17 17 15 16 16 15 16 17 18 19 17 15 15 15 14 14 15 13 14 12 11 10 8 7 8 7 7 6 7 7 9 9 7 8 8 7 8 10 9 7 7 7 10
17 17 17 17 16 17 17 18 20 19 20 19 19 18 18 16 16 14 14 14 14 14 11 10 9 10 11 10 10 9 8 8 10 11 11 10 11 11 10 8 9 10 13
18 19 20 20 18 17 18 16 14 15 15 15 12 16 16 15 12 12 12 12 12 12 14 15 13 12 13 12 11 11 11 10 12 12 12 13 15 13 12 12 12 14 16
21 19 19 19 19 20 19 18 15 14 15 15 19 19 17 17 16 15 13 15 15 15 18 17 16 15 14 14 14 14 15 15 14 15 16 17 16 15 14 14 16 17 19
22 21 22 21 20 21 21 20 17 15 17 21 22 21 22 20 18 16 14 13 16 19 21 20 20 18 16 17 16 17 16 16 16 17 18 19 18 18 18 19 18 19 19
22 22 23 23 23 22 21 20 19 19 18 17 16 18 23 20 17 16 15 20 22 22 24 24 23 21 20 19 18 18 17 18 18 19 19 18 17 18 20 20 20 16 16
19 23 22 23 23 22 22 21 20 20 19 20 21 20 16 15 20 22 24 25 26 26 25 24 23 22 20 19 19 19 18 18 19 19 20 20 21 21 21 21 19 19 19
20 20 21 22 23 24 23 23 22 22 21 22 24 25 23 25 25 26 28 30 31 30 28 26 25 22 18 18 19 18 19 20 19 20 20 20 20 20 20 20 18 17 18
19 21 21 23 23 22 23 23 22 23 23 22 21 22 19 22 25 27 29 30 31 31 31 29 27 26 23 18 21 19 21 20 20 20 21 21 22 22 21 20 20 19 19
16 18 22 21 23 22 20 22 23 23 23 23 23 22 22 26 28 28 27 27 28 29 27 27 25 24 20 20 17 19 20 18 18 20 19 20 22 22 21 21 21 20 20
10 12 17 18 20 20 20 20 21 21 21 21 21 21 22 23 24 26 28 29 28 25 26 27 26 26 22 18 19 19 16 19 19 18 20 22 23 21 20 21 23 24 24
6 7 10 14 15 15 17 17 17 17 17 17 17 17 17 18 19 20 20 22 23 24 27 24 24 24 21 21 17 18 17 16 17 21 21 22 23 24 24 22 24 24 25
4 4 6 6 7 9 10 11 11 12 13 13 14 13 13 15 15 16 17 18 19 21 22 21 21 21 20 20 20 19 16 19 21 19 20 21 23 25 24 25 25 25 25
Wind_Direction
172 172 172 173 161 166 181 201 214 222 239 236 246 255 262 271 270 280 273 260 265 267 260 239 247 242 248 270 248 206 214 198 166 159 142 128 195 280 317 349 358 19 17
175 185 180 172 169 167 182 200 213 221 237 233 241 248 252 255 256 220 243 223 235 236 230 201 210 203 232 243 234 137 175 195 196 168 176 167 298 331 336 14 26 9 352
177 176 169 171 169 170 185 200 218 214 234 250 245 234 242 249 224 213 196 194 184 185 200 204 187 188 180 183 182 195 192 188 205 191 157 322 293 327 346 20 25 34 30
179 178 182 181 186 181 196 202 208 217 218 220 211 221 244 254 245 221 190 194 191 192 178 182 173 170 165 150 148 123 119 121 118 139 141 209 260 359 9 33 56 28 357
193 190 186 184 187 188 193 212 212 218 205 210 237 257 265 266 259 229 188 192 182 166 162 157 146 145 154 150 155 133 142 147 146 167 155 213 230 261 354 20 344 331 82
194 192 195 197 206 208 213 220 219 210 221 235 231 233 256 239 250 206 186 188 167 167 145 138 131 131 103 98 117 131 132 136 190 191 204 219 172 187 120 52 354 8 67
195 193 193 194 193 188 191 209 221 220 232 229 221 214 200 206 186 183 173 182 180 175 166 164 169 173 147 117 97 95 89 92 124 83 151 140 132 169 273 269 266 305 301
196 193 192 192 189 192 198 203 213 218 223 224 214 202 195 185 204 196 198 203 188 167 158 152 153 137 129 125 123 118 102 107 127 147 140 154 179 187 225 279 300 310 313
196 193 192 191 190 193 202 205 210 212 214 213 200 196 189 188 175 162 159 149 149 156 143 140 147 180 160 133 117 125 117 301 16 280 259 260 259 256 254 258 253 298 331
195 195 194 195 195 202 200 210 213 214 212 207 204 204 204 200 183 169 154 157 158 167 167 176 190 169 182 162 167 135 137 140 236 289 276 306 315 274 263 236 243 251 257
197 197 192 192 193 198 205 206 205 202 202 202 206 206 204 199 188 189 190 187 182 185 198 211 224 227 220 232 249 207 192 220 250 272 271 291 290 271 251 233 248 247 226
193 190 187 188 191 199 204 200 201 200 199 197 201 207 207 208 201 204 206 200 191 204 208 217 232 243 243 242 246 245 248 257 245 260 277 272 254 234 248 272 272 270 258
187 186 188 195 202 204 203 201 200 201 205 207 206 210 214 214 213 210 210 209 214 213 219 227 228 242 248 249 252 238 236 243 247 266 273 272 261 262 256 265 278 280 287
191 190 191 200 203 207 207 210 209 207 204 209 212 217 219 220 221 222 219 216 221 223 223 234 248 244 249 253 248 240 239 246 249 258 261 263 257 260 272 264 267 279 282
196 194 201 206 204 213 214 214 215 221 222 216 221 226 220 222 230 234 230 225 224 229 240 238 233 238 246 252 255 253 247 248 245 254 254 253 259 258 262 270 265 265 264
199 201 203 205 202 217 216 211 221 230 232 228 237 240 235 240 239 233 231 227 222 219 217 229 236 243 246 250 252 251 254 249 250 251 252 252 251 250 254 253 257 263 270
213 211 210 212 208 206 213 210 207 226 227 229 228 228 230 230 232 234 229 225 215 211 224 236 242 243 249 252 257 260 256 253 255 253 249 251 252 255 258 257 260 265 268
227 225 221 217 212 209 214 219 219 211 220 236 234 232 232 235 239 239 235 219 219 221 232 236 244 250 253 257 261 261 262 258 254 254 255 256 255 257 258 260 264 267 273
228 222 225 224 223 220 221 222 224 221 223 241 245 235 233 235 234 230 224 221 223 226 232 240 249 255 257 260 262 264 263 260 258 257 259 258 259 259 262 266 270 268 273
241 236 225 222 220 213 218 219 219 221 226 229 232 238 231 221 225 226 227 228 231 237 244 248 251 252 255 260 260 262 262 258 253 253 256 260 264 263 263 268 272 272 270
240 236 222 219 217 217 214 213 217 219 221 227 236 243 244 241 238 236 235 233 234 239 245 250 253 249 252 262 261 259 259 259 260 259 259 261 265 262 264 269 265 263 266
235 235 232 217 221 217 217 219 217 220 223 226 232 237 225 229 241 242 241 243 246 252 254 254 252 251 246 256 256 258 256 257 260 261 260 264 267 265 265 260 259 261 263
238 232 233 225 223 222 217 221 221 224 227 233 238 239 241 237 239 241 244 245 250 256 255 253 253 253 245 259 252 261 255 258 265 270 265 268 267 265 264 259 257 255 254
250 243 240 236 229 223 220 220 227 232 234 238 242 244 247 252 250 253 256 260 262 255 247 245 245 241 252 244 252 260 255 274 270 267 269 266 265 261 255 258 257 259 259
270 257 245 238 234 221 225 227 232 236 238 242 246 249 253 256 260 262 263 263 263 252 252 256 247 242 234 240 251 252 272 273 269 266 264 262 263 264 264 261 265 263 262
291 261 251 236 229 228 227 225 229 235 241 246 249 252 257 261 265 269 268 265 263 258 254 254 253 242 240 237 242 254 258 271 266 257 264 266 267 271 274 273 272 267 263